Time,TemperatureF,DewpointF,PressureIn,WindDirection,WindDirectionDegrees,WindSpeedMPH,WindSpeedGustMPH,Humidity,HourlyPrecipIn,Conditions,Clouds,dailyrainin,SoftwareType,DateUTC
2013-07-31 00:03:00,66.4,42.6,30.25,South,187,0.0,2.2,42,0.00,,BKN220,0.00,VWS V13.01,2013-07-31 06:03:00,
2013-07-31 00:08:00,66.0,42.9,30.25,South,188,0.0,2.2,43,0.00,,BKN220,0.00,VWS V13.01,2013-07-31 06:08:00,
2013-07-31 00:13:00,65.5,43.0,30.25,South,187,0.0,2.2,44,0.00,,BKN220,0.00,VWS V13.01,2013-07-31 06:13:00,
2013-07-31 00:18:00,64.9,42.5,30.25,SSW,199,3.1,3.1,44,0.00,,BKN220,0.00,VWS V13.01,2013-07-31 06:18:00,
2013-07-31 00:23:00,64.8,43.0,30.25,SSW,199,0.0,3.1,45,0.00,,BKN220,0.00,VWS V13.01,2013-07-31 06:23:00,
2013-07-31 00:28:00,64.6,42.8,30.25,SSW,199,0.0,3.1,45,0.00,,BKN220,0.00,VWS V13.01,2013-07-31 06:28:00,
2013-07-31 00:33:00,64.4,42.6,30.25,SSW,199,0.0,0.0,45,0.00,,BKN220,0.00,VWS V13.01,2013-07-31 06:33:00,
2013-07-31 00:38:00,64.2,42.5,30.25,SSW,199,0.0,0.0,45,0.00,,BKN220,0.00,VWS V13.01,2013-07-31 06:38:00,
2013-07-31 00:43:00,63.9,42.7,30.25,SSW,199,0.0,0.0,46,0.00,,BKN220,0.00,VWS V13.01,2013-07-31 06:43:00,
2013-07-31 00:48:00,63.5,42.9,30.25,SSW,199,0.0,0.0,47,0.00,,BKN220,0.00,VWS V13.01,2013-07-31 06:48:00,
2013-07-31 00:53:00,63.1,42.6,30.25,SSW,199,0.0,0.0,47,0.00,,BKN220,0.00,VWS V13.01,2013-07-31 06:53:00,
2013-07-31 00:58:00,63.0,43.0,30.25,SSW,199,0.0,0.0,48,0.00,,BKN220,0.00,VWS V13.01,2013-07-31 06:58:00,
2013-07-31 01:03:00,62.4,43.0,30.25,SSW,199,0.0,0.0,49,0.00,,BKN220,0.00,VWS V13.01,2013-07-31 07:03:00,
2013-07-31 01:08:00,62.2,43.4,30.25,SSW,199,0.0,0.0,50,0.00,,BKN220,0.00,VWS V13.01,2013-07-31 07:08:00,
2013-07-31 01:13:00,62.2,43.4,30.25,SSW,199,0.0,0.0,50,0.00,,BKN220,0.00,VWS V13.01,2013-07-31 07:13:00,
2013-07-31 01:18:00,62.2,43.9,30.25,SSW,199,0.0,0.0,51,0.00,,BKN220,0.00,VWS V13.01,2013-07-31 07:18:00,
2013-07-31 01:23:00,62.2,43.9,30.25,SSW,199,0.0,0.0,51,0.00,,BKN220,0.00,VWS V13.01,2013-07-31 07:23:00,
2013-07-31 01:28:00,62.2,43.9,30.25,SSW,199,0.0,0.0,51,0.00,,BKN220,0.00,VWS V13.01,2013-07-31 07:28:00,
2013-07-31 01:33:00,62.1,44.2,30.25,SSW,199,0.0,0.0,52,0.00,,BKN220,0.00,VWS V13.01,2013-07-31 07:33:00,
2013-07-31 01:38:00,62.1,44.8,30.25,SSW,199,0.0,0.0,53,0.00,,BKN220,0.00,VWS V13.01,2013-07-31 07:38:00,
2013-07-31 01:43:00,62.1,44.8,30.25,SSW,199,0.0,0.0,53,0.00,,BKN220,0.00,VWS V13.01,2013-07-31 07:43:00,
2013-07-31 01:48:00,62.2,44.9,30.25,SSW,199,0.0,0.0,53,0.00,,BKN220,0.00,VWS V13.01,2013-07-31 07:48:00,
2013-07-31 01:53:00,62.2,45.4,30.25,South,178,3.6,3.6,54,0.00,,BKN220,0.00,VWS V13.01,2013-07-31 07:53:00,
2013-07-31 01:58:00,62.2,45.4,30.25,South,178,3.1,4.0,54,0.00,,BKN220,0.00,VWS V13.01,2013-07-31 07:58:00,
2013-07-31 02:03:00,62.4,45.1,30.25,South,177,0.0,3.6,53,0.00,,BKN220,0.00,VWS V13.01,2013-07-31 08:03:00,
2013-07-31 02:08:00,62.6,44.8,30.25,South,177,0.0,3.6,52,0.00,,BKN220,0.00,VWS V13.01,2013-07-31 08:08:00,
2013-07-31 02:13:00,62.6,44.8,30.25,South,178,0.0,3.6,52,0.00,,BKN220,0.00,VWS V13.01,2013-07-31 08:13:00,
2013-07-31 02:18:00,62.6,44.8,30.25,South,177,0.0,0.0,52,0.00,,BKN220,0.00,VWS V13.01,2013-07-31 08:18:00,
2013-07-31 02:23:00,63.0,44.6,30.25,South,178,0.0,0.0,51,0.00,,BKN220,0.00,VWS V13.01,2013-07-31 08:23:00,
2013-07-31 02:28:00,63.0,44.6,30.25,South,178,0.0,0.0,51,0.00,,BKN220,0.00,VWS V13.01,2013-07-31 08:28:00,
2013-07-31 02:33:00,63.3,44.4,30.25,WSW,250,0.0,3.1,50,0.00,,BKN220,0.00,VWS V13.01,2013-07-31 08:33:00,
2013-07-31 02:38:00,63.7,44.2,30.25,WSW,250,0.0,3.1,49,0.00,,BKN220,0.00,VWS V13.01,2013-07-31 08:38:00,
2013-07-31 02:43:00,63.7,43.6,30.25,WSW,250,0.0,3.1,48,0.00,,BKN220,0.00,VWS V13.01,2013-07-31 08:43:00,
2013-07-31 02:48:00,63.7,43.6,30.25,WSW,250,0.0,0.0,48,0.00,,BKN220,0.00,VWS V13.01,2013-07-31 08:48:00,
2013-07-31 02:53:00,63.7,43.6,30.25,WSW,250,0.0,0.0,48,0.00,,BKN220,0.00,VWS V13.01,2013-07-31 08:53:00,
2013-07-31 02:58:00,63.3,43.3,30.25,WSW,250,0.0,0.0,48,0.00,,BKN220,0.00,VWS V13.01,2013-07-31 08:58:00,
2013-07-31 03:03:00,63.1,43.7,30.25,WSW,250,0.0,0.0,49,0.00,,BKN220,0.00,VWS V13.01,2013-07-31 09:03:00,
2013-07-31 03:08:00,63.0,43.5,30.25,WSW,250,0.0,0.0,49,0.00,,BKN220,0.00,VWS V13.01,2013-07-31 09:08:00,
2013-07-31 03:13:00,62.6,43.7,30.25,WSW,251,0.0,0.0,50,0.00,,BKN220,0.00,VWS V13.01,2013-07-31 09:13:00,
2013-07-31 03:18:00,62.4,44.1,30.25,WSW,250,0.0,0.0,51,0.00,,BKN220,0.00,VWS V13.01,2013-07-31 09:18:00,
2013-07-31 03:23:00,62.2,44.4,30.25,WSW,251,0.0,0.0,52,0.00,,BKN220,0.00,VWS V13.01,2013-07-31 09:23:00,
2013-07-31 03:28:00,62.2,44.9,30.25,WSW,251,0.0,0.0,53,0.00,,BKN220,0.00,VWS V13.01,2013-07-31 09:28:00,
2013-07-31 03:33:00,62.1,44.8,30.25,WSW,251,0.0,0.0,53,0.00,,BKN220,0.00,VWS V13.01,2013-07-31 09:33:00,
2013-07-31 03:38:00,61.9,45.1,30.25,WSW,251,0.0,0.0,54,0.00,,BKN220,0.00,VWS V13.01,2013-07-31 09:38:00,
2013-07-31 03:43:00,61.7,45.9,30.28,WSW,250,0.0,0.0,56,0.00,,BKN220,0.00,VWS V13.01,2013-07-31 09:43:00,
2013-07-31 03:48:00,61.7,45.9,30.28,WSW,250,0.0,0.0,56,0.00,,BKN220,0.00,VWS V13.01,2013-07-31 09:48:00,
2013-07-31 03:53:00,61.7,45.9,30.28,WSW,250,0.0,0.0,56,0.00,,BKN220,0.00,VWS V13.01,2013-07-31 09:53:00,
2013-07-31 03:58:00,61.5,46.2,30.25,WSW,250,0.0,0.0,57,0.00,,BKN220,0.00,VWS V13.01,2013-07-31 09:58:00,
2013-07-31 04:03:00,61.5,46.6,30.25,WSW,251,0.0,0.0,58,0.00,,BKN220,0.00,VWS V13.01,2013-07-31 10:03:00,
2013-07-31 04:08:00,61.5,46.6,30.25,WSW,250,0.0,0.0,58,0.00,,BKN220,0.00,VWS V13.01,2013-07-31 10:08:00,
2013-07-31 04:13:00,61.7,47.2,30.28,WSW,250,0.0,0.0,59,0.00,,BKN220,0.00,VWS V13.01,2013-07-31 10:13:00,
2013-07-31 04:18:00,62.1,47.6,30.28,WSW,250,0.0,0.0,59,0.00,,BKN220,0.00,VWS V13.01,2013-07-31 10:18:00,
2013-07-31 04:23:00,62.2,47.8,30.28,WSW,250,0.0,0.0,59,0.00,,BKN220,0.00,VWS V13.01,2013-07-31 10:23:00,
2013-07-31 04:28:00,62.2,48.2,30.28,WSW,250,0.0,0.0,60,0.00,,BKN220,0.00,VWS V13.01,2013-07-31 10:28:00,
2013-07-31 04:33:00,62.2,48.2,30.28,WSW,251,0.0,0.0,60,0.00,,BKN220,0.00,VWS V13.01,2013-07-31 10:33:00,
2013-07-31 04:38:00,62.4,48.4,30.28,WSW,250,0.0,0.0,60,0.00,,BKN220,0.00,VWS V13.01,2013-07-31 10:38:00,
2013-07-31 04:43:00,62.4,47.9,30.28,WSW,250,0.0,0.0,59,0.00,,BKN220,0.00,VWS V13.01,2013-07-31 10:43:00,
2013-07-31 04:49:00,62.6,47.6,30.28,WSW,251,0.0,0.0,58,0.00,,BKN220,0.00,VWS V13.01,2013-07-31 10:49:00,
2013-07-31 04:54:00,62.6,47.6,30.28,WSW,251,0.0,0.0,58,0.00,,BKN220,0.00,VWS V13.01,2013-07-31 10:54:00,
2013-07-31 04:59:00,62.4,47.5,30.28,WSW,250,0.0,0.0,58,0.00,,BKN220,0.00,VWS V13.01,2013-07-31 10:59:00,
2013-07-31 05:04:00,62.2,47.3,30.28,WSW,250,0.0,0.0,58,0.00,,BKN220,0.00,VWS V13.01,2013-07-31 11:04:00,
2013-07-31 05:09:00,62.2,47.3,30.28,WSW,250,0.0,0.0,58,0.00,,BKN220,0.00,VWS V13.01,2013-07-31 11:09:00,
2013-07-31 05:14:00,62.1,47.1,30.28,WSW,250,0.0,0.0,58,0.00,,BKN220,0.00,VWS V13.01,2013-07-31 11:14:00,
2013-07-31 05:19:00,62.1,47.6,30.28,WSW,250,0.0,0.0,59,0.00,,BKN220,0.00,VWS V13.01,2013-07-31 11:19:00,
2013-07-31 05:24:00,61.9,47.4,30.28,WSW,250,0.0,0.0,59,0.00,,BKN220,0.00,VWS V13.01,2013-07-31 11:24:00,
2013-07-31 05:29:00,61.9,47.4,30.28,WSW,250,0.0,0.0,59,0.00,,BKN220,0.00,VWS V13.01,2013-07-31 11:29:00,
2013-07-31 05:34:00,61.7,47.2,30.28,WSW,250,0.0,0.0,59,0.00,,BKN220,0.00,VWS V13.01,2013-07-31 11:34:00,
2013-07-31 05:39:00,61.3,46.9,30.28,WSW,250,0.0,0.0,59,0.00,,BKN220,0.00,VWS V13.01,2013-07-31 11:39:00,
2013-07-31 05:44:00,61.2,47.2,30.31,WSW,250,0.0,0.0,60,0.00,,BKN220,0.00,VWS V13.01,2013-07-31 11:44:00,
2013-07-31 05:49:00,61.0,47.0,30.31,WSW,251,0.0,0.0,60,0.00,,BKN220,0.00,VWS V13.01,2013-07-31 11:49:00,
2013-07-31 05:54:00,60.8,47.3,30.31,WSW,250,0.0,0.0,61,0.00,,BKN220,0.00,VWS V13.01,2013-07-31 11:54:00,
2013-07-31 05:59:00,60.8,47.7,30.28,WSW,251,0.0,0.0,62,0.00,,BKN220,0.00,VWS V13.01,2013-07-31 11:59:00,
2013-07-31 06:04:00,60.8,48.1,30.28,WSW,251,0.0,0.0,63,0.00,,SCT220,0.00,VWS V13.01,2013-07-31 12:04:00,
2013-07-31 06:09:00,61.0,48.3,30.31,WSW,250,0.0,0.0,63,0.00,,SCT220,0.00,VWS V13.01,2013-07-31 12:09:00,
2013-07-31 06:14:00,61.0,47.9,30.31,WSW,251,0.0,0.0,62,0.00,,SCT220,0.00,VWS V13.01,2013-07-31 12:14:00,
2013-07-31 06:19:00,61.0,47.9,30.31,WSW,250,0.0,0.0,62,0.00,,SCT220,0.00,VWS V13.01,2013-07-31 12:19:00,
2013-07-31 06:24:00,61.0,47.5,30.31,WSW,251,0.0,0.0,61,0.00,,SCT220,0.00,VWS V13.01,2013-07-31 12:24:00,
2013-07-31 06:29:00,60.8,47.3,30.31,WSW,250,0.0,0.0,61,0.00,,SCT220,0.00,VWS V13.01,2013-07-31 12:29:00,
2013-07-31 06:34:00,60.8,47.3,30.31,WSW,250,0.0,0.0,61,0.00,,SCT220,0.00,VWS V13.01,2013-07-31 12:34:00,
2013-07-31 06:39:00,60.8,47.7,30.31,WSW,250,0.0,0.0,62,0.00,,SCT220,0.00,VWS V13.01,2013-07-31 12:39:00,
2013-07-31 06:44:00,61.0,48.3,30.31,WSW,250,0.0,0.0,63,0.00,,SCT220,0.00,VWS V13.01,2013-07-31 12:44:00,
2013-07-31 06:49:00,61.3,48.7,30.31,WSW,250,0.0,0.0,63,0.00,,SCT220,0.00,VWS V13.01,2013-07-31 12:49:00,
2013-07-31 06:54:00,61.9,49.2,30.31,WSW,250,0.0,0.0,63,0.00,,SCT220,0.00,VWS V13.01,2013-07-31 12:54:00,
2013-07-31 06:59:00,62.4,49.2,30.31,WSW,251,0.0,0.0,62,0.00,,SCT220,0.00,VWS V13.01,2013-07-31 12:59:00,
2013-07-31 07:04:00,62.8,49.2,30.31,WSW,250,0.0,0.0,61,0.00,,FEW110,0.00,VWS V13.01,2013-07-31 13:04:00,
2013-07-31 07:09:00,63.3,49.2,30.31,WSW,250,0.0,0.0,60,0.00,,FEW110,0.00,VWS V13.01,2013-07-31 13:09:00,
2013-07-31 07:14:00,63.7,48.6,30.31,SW,233,4.0,4.0,58,0.00,,FEW110,0.00,VWS V13.01,2013-07-31 13:14:00,
2013-07-31 07:19:00,64.0,48.0,30.31,SSW,193,2.2,4.9,56,0.00,,FEW110,0.00,VWS V13.01,2013-07-31 13:19:00,
2013-07-31 07:24:00,64.0,47.1,30.31,SSW,206,0.0,4.9,54,0.00,,FEW110,0.00,VWS V13.01,2013-07-31 13:24:00,
2013-07-31 07:29:00,64.0,46.6,30.31,SSW,206,0.0,4.9,53,0.00,,FEW110,0.00,VWS V13.01,2013-07-31 13:29:00,
2013-07-31 07:34:00,63.7,46.2,30.31,SSW,206,0.0,0.0,53,0.00,,FEW110,0.00,VWS V13.01,2013-07-31 13:34:00,
2013-07-31 07:39:00,63.5,45.6,30.31,SSW,206,0.0,0.0,52,0.00,,FEW110,0.00,VWS V13.01,2013-07-31 13:39:00,
2013-07-31 07:44:00,63.9,46.4,30.31,SSW,206,0.0,0.0,53,0.00,,FEW110,0.00,VWS V13.01,2013-07-31 13:44:00,
2013-07-31 07:49:00,64.4,45.9,30.31,SSW,206,0.0,0.0,51,0.00,,FEW110,0.00,VWS V13.01,2013-07-31 13:49:00,
2013-07-31 07:54:00,64.8,45.7,30.31,SSW,206,0.0,0.0,50,0.00,,FEW110,0.00,VWS V13.01,2013-07-31 13:54:00,
2013-07-31 07:59:00,65.3,46.2,30.31,SSW,207,0.0,0.0,50,0.00,,FEW110,0.00,VWS V13.01,2013-07-31 13:59:00,
2013-07-31 08:04:00,65.8,46.2,30.31,SSW,206,0.0,0.0,49,0.00,,FEW110,0.00,VWS V13.01,2013-07-31 14:04:00,
2013-07-31 08:09:00,66.0,45.8,30.31,SSW,206,0.0,0.0,48,0.00,,FEW110,0.00,VWS V13.01,2013-07-31 14:09:00,
2013-07-31 08:14:00,66.4,46.1,30.31,SSW,206,0.0,0.0,48,0.00,,FEW110,0.00,VWS V13.01,2013-07-31 14:14:00,
2013-07-31 08:19:00,66.6,45.7,30.31,SSW,206,0.0,0.0,47,0.00,,FEW110,0.00,VWS V13.01,2013-07-31 14:19:00,
2013-07-31 08:25:00,66.9,44.9,30.31,SE,137,2.7,3.6,45,0.00,,FEW110,0.00,VWS V13.01,2013-07-31 14:25:00,
2013-07-31 08:30:00,67.3,44.7,30.31,SE,141,2.7,4.0,44,0.00,,FEW110,0.00,VWS V13.01,2013-07-31 14:30:00,
2013-07-31 08:35:00,67.5,44.2,30.31,SW,235,0.0,4.0,43,0.00,,FEW110,0.00,VWS V13.01,2013-07-31 14:35:00,
2013-07-31 08:40:00,67.3,44.0,30.31,SW,235,0.0,4.0,43,0.00,,FEW110,0.00,VWS V13.01,2013-07-31 14:40:00,
2013-07-31 08:45:00,67.1,43.3,30.31,WSW,256,0.0,4.0,42,0.00,,FEW110,0.00,VWS V13.01,2013-07-31 14:45:00,
2013-07-31 08:50:00,67.1,43.9,30.31,WSW,253,0.0,3.6,43,0.00,,FEW110,0.00,VWS V13.01,2013-07-31 14:50:00,
2013-07-31 08:55:00,67.3,44.0,30.31,WSW,253,0.0,3.6,43,0.00,,FEW110,0.00,VWS V13.01,2013-07-31 14:55:00,
2013-07-31 09:00:00,67.6,43.8,30.31,WSW,253,0.0,3.6,42,0.00,,FEW110,0.00,VWS V13.01,2013-07-31 15:00:00,
2013-07-31 09:05:00,68.2,43.0,30.31,WSW,253,0.0,2.7,40,0.00,,FEW110,0.00,VWS V13.01,2013-07-31 15:05:00,
2013-07-31 09:10:00,68.7,43.5,30.31,SW,227,0.0,2.7,40,0.00,,FEW110,0.00,VWS V13.01,2013-07-31 15:10:00,
2013-07-31 09:15:00,69.4,43.4,30.31,SW,229,2.7,2.7,39,0.00,,FEW110,0.00,VWS V13.01,2013-07-31 15:15:00,
2013-07-31 09:20:00,70.3,42.2,30.31,WSW,254,4.9,4.9,36,0.00,,FEW110,0.00,VWS V13.01,2013-07-31 15:20:00,
2013-07-31 09:25:00,70.7,41.0,30.31,SSW,201,0.0,4.9,34,0.00,,FEW110,0.00,VWS V13.01,2013-07-31 15:25:00,
2013-07-31 09:30:00,70.7,41.0,30.31,SSW,201,0.0,4.9,34,0.00,,FEW110,0.00,VWS V13.01,2013-07-31 15:30:00,
2013-07-31 09:35:00,70.9,41.1,30.31,SW,226,0.0,2.7,34,0.00,,FEW110,0.00,VWS V13.01,2013-07-31 15:35:00,
2013-07-31 09:40:00,70.9,41.1,30.31,West,264,2.2,3.1,34,0.00,,FEW110,0.00,VWS V13.01,2013-07-31 15:40:00,
2013-07-31 09:45:00,70.9,41.1,30.31,West,264,0.0,0.0,34,0.00,,FEW110,0.00,VWS V13.01,2013-07-31 15:45:00,
2013-07-31 09:50:00,71.1,40.5,30.31,West,264,0.0,0.0,33,0.00,,FEW110,0.00,VWS V13.01,2013-07-31 15:50:00,
2013-07-31 09:55:00,71.4,40.8,30.31,West,264,0.0,0.0,33,0.00,,FEW110,0.00,VWS V13.01,2013-07-31 15:55:00,
2013-07-31 10:00:00,72.0,41.3,30.31,West,264,0.0,0.0,33,0.00,,FEW110,0.00,VWS V13.01,2013-07-31 16:00:00,
2013-07-31 10:05:00,72.9,41.3,30.31,West,264,0.0,0.0,32,0.00,,SCT110,0.00,VWS V13.01,2013-07-31 16:05:00,
2013-07-31 10:10:00,73.9,41.4,30.28,South,190,0.0,0.0,31,0.00,,SCT110,0.00,VWS V13.01,2013-07-31 16:10:00,
2013-07-31 10:15:00,74.5,39.3,30.28,SW,224,2.7,2.7,28,0.00,,SCT110,0.00,VWS V13.01,2013-07-31 16:15:00,
2013-07-31 10:20:00,74.5,38.3,30.28,SW,223,0.0,3.1,27,0.00,,SCT110,0.00,VWS V13.01,2013-07-31 16:20:00,
2013-07-31 10:25:00,74.7,36.5,30.28,WSW,237,0.0,3.6,25,0.00,,SCT110,0.00,VWS V13.01,2013-07-31 16:25:00,
2013-07-31 10:30:00,74.8,37.7,30.28,SSW,205,2.7,3.1,26,0.00,,SCT110,0.00,VWS V13.01,2013-07-31 16:30:00,
2013-07-31 10:35:00,75.2,37.0,30.28,South,189,0.0,3.1,25,0.00,,SCT110,0.00,VWS V13.01,2013-07-31 16:35:00,
2013-07-31 10:40:00,75.9,38.6,30.28,South,170,0.0,3.1,26,0.00,,SCT110,0.00,VWS V13.01,2013-07-31 16:40:00,
2013-07-31 10:45:00,76.6,37.2,30.28,NE,46,0.0,0.0,24,0.00,,SCT110,0.00,VWS V13.01,2013-07-31 16:45:00,
2013-07-31 10:50:00,77.4,37.8,30.28,ENE,75,3.1,3.1,24,0.00,,SCT110,0.00,VWS V13.01,2013-07-31 16:50:00,
2013-07-31 10:55:00,78.1,38.4,30.25,NNE,32,0.0,3.1,24,0.00,,SCT110,0.00,VWS V13.01,2013-07-31 16:55:00,
2013-07-31 11:00:00,78.4,36.5,30.25,SSE,152,4.0,4.0,22,0.00,,SCT110,0.00,VWS V13.01,2013-07-31 17:00:00,
2013-07-31 11:05:00,78.8,36.8,30.25,SSW,192,2.2,4.9,22,0.00,,SCT110,0.00,VWS V13.01,2013-07-31 17:05:00,
2013-07-31 11:10:00,79.5,38.5,30.25,ENE,67,5.4,5.4,23,0.00,,SCT110,0.00,VWS V13.01,2013-07-31 17:10:00,
2013-07-31 11:15:00,79.3,36.0,30.25,ESE,103,0.0,3.1,21,0.00,,SCT110,0.00,VWS V13.01,2013-07-31 17:15:00,
2013-07-31 11:20:00,79.2,35.9,30.25,ESE,107,2.7,4.5,21,0.00,,SCT110,0.00,VWS V13.01,2013-07-31 17:20:00,
2013-07-31 11:25:00,80.1,37.8,30.25,East,83,2.2,4.5,22,0.00,,SCT110,0.00,VWS V13.01,2013-07-31 17:25:00,
2013-07-31 11:30:00,81.1,38.7,30.25,ENE,74,2.7,2.7,22,0.00,,SCT110,0.00,VWS V13.01,2013-07-31 17:30:00,
2013-07-31 11:35:00,81.7,38.0,30.25,SE,145,2.7,3.1,21,0.00,,SCT110,0.00,VWS V13.01,2013-07-31 17:35:00,
2013-07-31 11:40:00,81.5,36.6,30.25,ESE,119,3.1,3.6,20,0.00,,SCT110,0.00,VWS V13.01,2013-07-31 17:40:00,
2013-07-31 11:45:00,81.7,38.0,30.25,ENE,75,3.1,3.6,21,0.00,,SCT110,0.00,VWS V13.01,2013-07-31 17:45:00,
2013-07-31 11:50:00,82.4,37.3,30.25,ENE,74,2.7,4.0,20,0.00,,SCT110,0.00,VWS V13.01,2013-07-31 17:50:00,
2013-07-31 11:55:00,82.6,37.5,30.25,East,92,0.0,8.3,20,0.00,,SCT110,0.00,VWS V13.01,2013-07-31 17:55:00,
2013-07-31 12:00:00,82.6,37.5,30.25,ESE,104,3.1,4.0,20,0.00,,SCT110,0.00,VWS V13.01,2013-07-31 18:00:00,
2013-07-31 12:05:00,82.9,36.5,30.25,SE,144,3.1,6.3,19,0.00,,SCT110,0.00,VWS V13.01,2013-07-31 18:05:00,
2013-07-31 12:10:00,83.3,36.8,30.25,ESE,102,4.0,6.3,19,0.00,,SCT110,0.00,VWS V13.01,2013-07-31 18:10:00,
2013-07-31 12:15:00,83.7,37.1,30.25,SW,225,0.0,4.0,19,0.00,,SCT110,0.00,VWS V13.01,2013-07-31 18:15:00,
2013-07-31 12:20:00,83.7,37.1,30.25,SSE,147,2.2,4.0,19,0.00,,SCT110,0.00,VWS V13.01,2013-07-31 18:20:00,
2013-07-31 12:25:00,84.2,37.5,30.25,East,92,0.0,5.4,19,0.00,,SCT110,0.00,VWS V13.01,2013-07-31 18:25:00,
2013-07-31 12:30:00,84.7,36.6,30.25,ENE,73,4.9,6.3,18,0.00,,SCT110,0.00,VWS V13.01,2013-07-31 18:30:00,
2013-07-31 12:35:00,84.7,36.6,30.25,East,100,2.2,6.3,18,0.00,,SCT110,0.00,VWS V13.01,2013-07-31 18:35:00,
2013-07-31 12:40:00,85.1,36.9,30.25,ENE,59,3.1,6.3,18,0.00,,SCT110,0.00,VWS V13.01,2013-07-31 18:40:00,
2013-07-31 12:45:00,85.6,34.3,30.25,ENE,72,0.0,3.1,16,0.00,,SCT110,0.00,VWS V13.01,2013-07-31 18:45:00,
2013-07-31 12:50:00,85.6,34.3,30.25,NW,311,0.0,3.6,16,0.00,,SCT110,0.00,VWS V13.01,2013-07-31 18:50:00,
2013-07-31 12:55:00,86.2,34.8,30.22,SE,129,0.0,4.0,16,0.00,,SCT110,0.00,VWS V13.01,2013-07-31 18:55:00,
2013-07-31 13:01:00,87.1,35.5,30.22,ENE,71,4.0,4.5,16,0.00,,SCT110,0.00,VWS V13.01,2013-07-31 19:01:00,
2013-07-31 13:06:00,87.1,30.3,30.22,SW,235,3.1,6.3,13,0.00,,SCT110,0.00,VWS V13.01,2013-07-31 19:06:00,
2013-07-31 13:11:00,86.9,30.2,30.22,ESE,102,2.2,6.3,13,0.00,,SCT110,0.00,VWS V13.01,2013-07-31 19:11:00,
2013-07-31 13:16:00,86.9,30.2,30.22,West,267,2.7,3.6,13,0.00,,SCT110,0.00,VWS V13.01,2013-07-31 19:16:00,
2013-07-31 13:21:00,87.1,30.3,30.22,ESE,103,0.0,4.0,13,0.00,,SCT110,0.00,VWS V13.01,2013-07-31 19:21:00,
2013-07-31 13:26:00,87.3,30.5,30.22,ESE,114,4.9,7.6,13,0.00,,SCT110,0.00,VWS V13.01,2013-07-31 19:26:00,
2013-07-31 13:31:00,87.6,26.7,30.22,East,87,5.4,5.4,11,0.00,,SCT110,0.00,VWS V13.01,2013-07-31 19:31:00,
2013-07-31 13:36:00,88.2,24.8,30.22,ESE,109,2.7,5.4,10,0.00,,SCT110,0.00,VWS V13.01,2013-07-31 19:36:00,
2013-07-31 13:41:00,88.5,25.1,30.22,SE,137,0.0,5.8,10,0.00,,SCT110,0.00,VWS V13.01,2013-07-31 19:41:00,
2013-07-31 13:46:00,88.9,20.0,30.22,ENE,61,2.7,4.0,8,0.00,,SCT110,0.00,VWS V13.01,2013-07-31 19:46:00,
2013-07-31 13:51:00,88.5,19.8,30.22,East,84,0.0,5.8,8,0.00,,SCT110,0.00,VWS V13.01,2013-07-31 19:51:00,
2013-07-31 13:56:00,88.9,20.0,30.22,East,84,0.0,5.8,8,0.00,,SCT110,0.00,VWS V13.01,2013-07-31 19:56:00,
2013-07-31 14:01:00,88.9,20.0,30.22,NW,309,2.2,4.0,8,0.00,,BKN220,0.00,VWS V13.01,2013-07-31 20:01:00,
2013-07-31 14:06:00,88.7,19.9,30.22,NNW,341,0.0,4.0,8,0.00,,BKN220,0.00,VWS V13.01,2013-07-31 20:06:00,
2013-07-31 14:11:00,88.9,20.0,30.22,ENE,72,4.0,4.9,8,0.00,,BKN220,0.00,VWS V13.01,2013-07-31 20:11:00,
2013-07-31 14:16:00,88.5,19.8,30.22,SE,145,3.6,4.9,8,0.00,,BKN220,0.00,VWS V13.01,2013-07-31 20:16:00,
2013-07-31 14:21:00,88.9,20.0,30.22,ENE,61,2.2,5.4,8,0.00,,BKN220,0.00,VWS V13.01,2013-07-31 20:21:00,
2013-07-31 14:26:00,89.2,20.3,30.19,ENE,57,3.1,5.4,8,0.00,,BKN220,0.00,VWS V13.01,2013-07-31 20:26:00,
2013-07-31 14:31:00,90.1,17.9,30.19,ENE,62,2.2,4.0,7,0.00,,BKN220,0.00,VWS V13.01,2013-07-31 20:31:00,
2013-07-31 14:36:00,91.4,18.8,30.19,ENE,66,2.2,4.0,7,0.00,,BKN220,0.00,VWS V13.01,2013-07-31 20:36:00,
2013-07-31 14:41:00,91.6,18.9,30.19,ENE,73,2.7,6.3,7,0.00,,BKN220,0.00,VWS V13.01,2013-07-31 20:41:00,
2013-07-31 14:46:00,91.2,18.6,30.19,ESE,102,3.1,6.3,7,0.00,,BKN220,0.00,VWS V13.01,2013-07-31 20:46:00,
2013-07-31 14:51:00,91.2,18.6,30.19,East,87,4.0,6.3,7,0.00,,BKN220,0.00,VWS V13.01,2013-07-31 20:51:00,
2013-07-31 14:56:00,91.4,18.8,30.19,SSE,160,2.2,6.3,7,0.00,,BKN220,0.00,VWS V13.01,2013-07-31 20:56:00,
2013-07-31 15:02:00,91.6,18.9,30.19,ENE,60,3.1,3.6,7,0.00,,BKN220,0.00,VWS V13.01,2013-07-31 21:02:00,
2013-07-31 15:07:00,91.8,19.0,30.19,ENE,59,4.9,4.9,7,0.00,,BKN220,0.00,VWS V13.01,2013-07-31 21:07:00,
2013-07-31 15:12:00,91.2,18.6,30.19,SE,127,0.0,5.8,7,0.00,,BKN220,0.00,VWS V13.01,2013-07-31 21:12:00,
2013-07-31 15:17:00,90.9,18.4,30.19,East,96,2.7,6.3,7,0.00,,BKN220,0.00,VWS V13.01,2013-07-31 21:17:00,
2013-07-31 15:22:00,90.5,18.1,30.19,SSE,153,3.1,6.3,7,0.00,,BKN220,0.00,VWS V13.01,2013-07-31 21:22:00,
2013-07-31 15:27:00,89.8,17.6,30.19,East,86,0.0,6.3,7,0.00,,BKN220,0.00,VWS V13.01,2013-07-31 21:27:00,
2013-07-31 15:32:00,89.2,20.3,30.19,East,86,0.0,0.0,8,0.00,,BKN220,0.00,VWS V13.01,2013-07-31 21:32:00,
2013-07-31 15:37:00,88.9,20.0,30.19,East,86,0.0,0.0,8,0.00,,BKN220,0.00,VWS V13.01,2013-07-31 21:37:00,
2013-07-31 15:42:00,88.2,19.5,30.19,West,259,3.6,4.0,8,0.00,,BKN220,0.00,VWS V13.01,2013-07-31 21:42:00,
2013-07-31 15:47:00,87.8,19.2,30.19,WSW,241,4.0,4.0,8,0.00,,BKN220,0.00,VWS V13.01,2013-07-31 21:47:00,
2013-07-31 15:52:00,87.3,18.9,30.19,ESE,106,7.6,8.1,8,0.00,,BKN220,0.00,VWS V13.01,2013-07-31 21:52:00,
2013-07-31 15:57:00,85.6,17.6,30.19,ESE,111,4.0,14.1,8,0.00,,BKN220,0.00,VWS V13.01,2013-07-31 21:57:00,
2013-07-31 16:02:00,85.3,17.4,30.19,East,81,6.3,6.7,8,0.00,,BKN220,0.00,VWS V13.01,2013-07-31 22:02:00,
2013-07-31 16:07:00,86.2,18.0,30.19,NE,35,10.5,10.5,8,0.00,,BKN220,0.00,VWS V13.01,2013-07-31 22:07:00,
2013-07-31 16:12:00,87.1,18.7,30.16,East,90,2.2,10.5,8,0.00,,BKN220,0.00,VWS V13.01,2013-07-31 22:12:00,
2013-07-31 16:17:00,88.2,19.5,30.16,West,268,4.9,6.3,8,0.00,,BKN220,0.00,VWS V13.01,2013-07-31 22:17:00,
2013-07-31 16:22:00,88.7,19.9,30.16,WNW,303,4.0,6.3,8,0.00,,BKN220,0.00,VWS V13.01,2013-07-31 22:22:00,
2013-07-31 16:27:00,89.1,20.2,30.16,West,280,3.6,6.3,8,0.00,,BKN220,0.00,VWS V13.01,2013-07-31 22:27:00,
2013-07-31 16:32:00,89.4,20.4,30.16,WNW,302,2.2,4.0,8,0.00,,BKN220,0.00,VWS V13.01,2013-07-31 22:32:00,
2013-07-31 16:37:00,89.8,17.6,30.16,WSW,257,6.3,6.3,7,0.00,,BKN220,0.00,VWS V13.01,2013-07-31 22:37:00,
2013-07-31 16:43:00,90.0,17.7,30.16,WNW,300,0.0,6.3,7,0.00,,BKN220,0.00,VWS V13.01,2013-07-31 22:43:00,
2013-07-31 16:48:00,90.7,18.2,30.16,WSW,256,3.1,4.0,7,0.00,,BKN220,0.00,VWS V13.01,2013-07-31 22:48:00,
2013-07-31 16:53:00,90.5,18.1,30.16,WSW,242,3.1,5.4,7,0.00,,BKN220,0.00,VWS V13.01,2013-07-31 22:53:00,
2013-07-31 16:58:00,90.1,17.9,30.16,WNW,301,0.0,5.8,7,0.00,,BKN220,0.00,VWS V13.01,2013-07-31 22:58:00,
2013-07-31 17:03:00,90.3,18.0,30.16,SSE,160,2.2,4.9,7,0.00,,BKN220,0.00,VWS V13.01,2013-07-31 23:03:00,
2013-07-31 17:08:00,90.3,18.0,30.16,SSE,149,0.0,4.9,7,0.00,,BKN220,0.00,VWS V13.01,2013-07-31 23:08:00,
2013-07-31 17:13:00,90.3,18.0,30.16,WSW,245,2.2,5.4,7,0.00,,BKN220,0.00,VWS V13.01,2013-07-31 23:13:00,
2013-07-31 17:18:00,90.7,18.2,30.16,ENE,72,2.7,2.7,7,0.00,,BKN220,0.00,VWS V13.01,2013-07-31 23:18:00,
2013-07-31 17:23:00,91.0,18.5,30.16,ESE,106,2.2,4.0,7,0.00,,BKN220,0.00,VWS V13.01,2013-07-31 23:23:00,
2013-07-31 17:28:00,91.0,18.5,30.14,East,91,3.6,4.5,7,0.00,,BKN220,0.00,VWS V13.01,2013-07-31 23:28:00,
2013-07-31 17:33:00,90.7,18.2,30.14,East,101,0.0,4.0,7,0.00,,BKN220,0.00,VWS V13.01,2013-07-31 23:33:00,
2013-07-31 17:38:00,90.7,18.2,30.14,ENE,69,0.0,4.0,7,0.00,,BKN220,0.00,VWS V13.01,2013-07-31 23:38:00,
2013-07-31 17:43:00,90.7,18.2,30.14,ENE,74,2.7,4.9,7,0.00,,BKN220,0.00,VWS V13.01,2013-07-31 23:43:00,
2013-07-31 17:48:00,90.9,18.4,30.14,ENE,74,0.0,0.0,7,0.00,,BKN220,0.00,VWS V13.01,2013-07-31 23:48:00,
2013-07-31 17:53:00,90.7,18.2,30.14,WNW,283,2.7,4.0,7,0.00,,BKN220,0.00,VWS V13.01,2013-07-31 23:53:00,
2013-07-31 17:58:00,90.5,18.1,30.14,WNW,283,0.0,4.0,7,0.00,,BKN220,0.00,VWS V13.01,2013-07-31 23:58:00,
2013-07-31 18:03:00,90.5,18.1,30.14,WNW,283,0.0,0.0,7,0.00,,SCT220,0.00,VWS V13.01,2013-08-01 00:03:00,
2013-07-31 18:08:00,90.5,18.1,30.14,East,91,0.0,0.0,7,0.00,,SCT220,0.00,VWS V13.01,2013-08-01 00:08:00,
2013-07-31 18:13:00,90.9,18.4,30.14,East,91,0.0,0.0,7,0.00,,SCT220,0.00,VWS V13.01,2013-08-01 00:13:00,
2013-07-31 18:18:00,91.2,18.6,30.14,WNW,298,0.0,0.0,7,0.00,,SCT220,0.00,VWS V13.01,2013-08-01 00:18:00,
2013-07-31 18:23:00,91.2,18.6,30.14,East,100,0.0,2.2,7,0.00,,SCT220,0.00,VWS V13.01,2013-08-01 00:23:00,
2013-07-31 18:28:00,90.9,18.4,30.14,East,82,0.0,3.1,7,0.00,,SCT220,0.00,VWS V13.01,2013-08-01 00:28:00,
2013-07-31 18:33:00,90.5,18.1,30.14,East,82,0.0,0.0,7,0.00,,SCT220,0.00,VWS V13.01,2013-08-01 00:33:00,
2013-07-31 18:38:00,89.4,20.4,30.14,East,82,0.0,0.0,8,0.00,,SCT220,0.00,VWS V13.01,2013-08-01 00:38:00,
2013-07-31 18:43:00,88.7,19.9,30.14,East,82,0.0,0.0,8,0.00,,SCT220,0.00,VWS V13.01,2013-08-01 00:43:00,
2013-07-31 18:48:00,88.0,19.4,30.14,East,82,0.0,0.0,8,0.00,,SCT220,0.00,VWS V13.01,2013-08-01 00:48:00,
2013-07-31 18:53:00,87.3,18.9,30.14,East,82,0.0,0.0,8,0.00,,SCT220,0.00,VWS V13.01,2013-08-01 00:53:00,
2013-07-31 18:58:00,87.1,18.7,30.14,East,82,0.0,0.0,8,0.00,,SCT220,0.00,VWS V13.01,2013-08-01 00:58:00,
2013-07-31 19:03:00,86.7,18.5,30.14,East,82,0.0,0.0,8,0.00,,SCT220,0.00,VWS V13.01,2013-08-01 01:03:00,
2013-07-31 19:08:00,86.4,18.2,30.14,East,82,0.0,0.0,8,0.00,,SCT220,0.00,VWS V13.01,2013-08-01 01:08:00,
2013-07-31 19:13:00,85.8,17.8,30.16,East,82,0.0,2.7,8,0.00,,SCT220,0.00,VWS V13.01,2013-08-01 01:13:00,
2013-07-31 19:18:00,85.5,17.5,30.16,North,0,2.2,2.7,8,0.00,,BKN220,0.00,VWS V13.01,2013-08-01 01:18:00,
2013-07-31 19:23:00,84.9,17.1,30.16,North,357,3.1,8.1,8,0.00,,BKN220,0.00,VWS V13.01,2013-08-01 01:23:00,
2013-07-31 19:28:00,84.2,16.6,30.16,North,5,2.2,8.1,8,0.00,,BKN220,0.00,VWS V13.01,2013-08-01 01:28:00,
2013-07-31 19:33:00,83.1,23.2,30.16,WNW,290,3.1,3.1,11,0.00,,BKN220,0.00,VWS V13.01,2013-08-01 01:33:00,
2013-07-31 19:38:00,82.4,22.7,30.16,NNW,346,2.7,5.4,11,0.00,,BKN220,0.00,VWS V13.01,2013-08-01 01:38:00,
2013-07-31 19:43:00,81.9,28.0,30.16,North,7,2.7,5.4,14,0.00,,BKN220,0.00,VWS V13.01,2013-08-01 01:43:00,
2013-07-31 19:48:00,81.3,27.6,30.16,NNW,338,2.2,2.7,14,0.00,,BKN220,0.00,VWS V13.01,2013-08-01 01:48:00,
2013-07-31 19:53:00,80.6,31.8,30.16,NNW,333,2.7,4.0,17,0.00,,BKN220,0.00,VWS V13.01,2013-08-01 01:53:00,
2013-07-31 19:58:00,79.9,35.3,30.16,NW,317,2.2,4.0,20,0.00,,BKN220,0.00,VWS V13.01,2013-08-01 01:58:00,
2013-07-31 20:03:00,79.3,34.8,30.16,North,7,2.2,3.6,20,0.00,,BKN220,0.00,VWS V13.01,2013-08-01 02:03:00,
2013-07-31 20:08:00,78.6,34.2,30.16,WNW,285,2.7,3.6,20,0.00,,BKN220,0.00,VWS V13.01,2013-08-01 02:08:00,
2013-07-31 20:13:00,78.1,35.0,30.16,North,353,3.1,4.0,21,0.00,,BKN220,0.00,VWS V13.01,2013-08-01 02:13:00,
2013-07-31 20:18:00,77.4,34.4,30.16,ENE,61,3.6,5.8,21,0.00,,BKN220,0.00,VWS V13.01,2013-08-01 02:18:00,
2013-07-31 20:23:00,76.8,35.1,30.16,NE,40,2.2,8.1,22,0.00,,BKN220,0.00,VWS V13.01,2013-08-01 02:23:00,
2013-07-31 20:28:00,76.3,34.7,30.16,NE,50,3.1,8.1,22,0.00,,BKN220,0.00,VWS V13.01,2013-08-01 02:28:00,
2013-07-31 20:33:00,75.6,35.2,30.16,North,353,0.0,5.4,23,0.00,,BKN220,0.00,VWS V13.01,2013-08-01 02:33:00,
2013-07-31 20:38:00,75.2,36.0,30.16,NE,43,0.0,5.4,24,0.00,,BKN220,0.00,VWS V13.01,2013-08-01 02:38:00,
2013-07-31 20:43:00,74.7,37.5,30.16,NW,305,0.0,5.4,26,0.00,,BKN220,0.00,VWS V13.01,2013-08-01 02:43:00,
2013-07-31 20:48:00,74.3,38.2,30.16,NNE,31,0.0,2.7,27,0.00,,BKN220,0.00,VWS V13.01,2013-08-01 02:48:00,
2013-07-31 20:53:00,74.1,39.0,30.16,North,353,0.0,2.7,28,0.00,,BKN220,0.00,VWS V13.01,2013-08-01 02:53:00,
2013-07-31 20:58:00,74.1,39.9,30.19,North,353,3.6,5.4,29,0.00,,BKN220,0.00,VWS V13.01,2013-08-01 02:58:00,
2013-07-31 21:03:00,73.9,41.4,30.19,North,0,2.2,2.2,31,0.00,,BKN220,0.00,VWS V13.01,2013-08-01 03:03:00,
2013-07-31 21:08:00,73.9,41.4,30.19,NNE,30,3.1,3.1,31,0.00,,BKN220,0.00,VWS V13.01,2013-08-01 03:08:00,
2013-07-31 21:13:00,73.8,41.3,30.19,NE,47,0.0,3.1,31,0.00,,BKN220,0.00,VWS V13.01,2013-08-01 03:13:00,
2013-07-31 21:18:00,73.4,41.8,30.19,ENE,58,0.0,2.7,32,0.00,,BKN220,0.00,VWS V13.01,2013-08-01 03:18:00,
2013-07-31 21:23:00,73.0,41.5,30.19,East,84,2.2,2.7,32,0.00,,BKN220,0.00,VWS V13.01,2013-08-01 03:23:00,
2013-07-31 21:28:00,72.7,42.0,30.19,NE,42,0.0,3.1,33,0.00,,BKN220,0.00,VWS V13.01,2013-08-01 03:28:00,
2013-07-31 21:33:00,72.1,42.2,30.19,North,357,0.0,3.1,34,0.00,,BKN220,0.00,VWS V13.01,2013-08-01 03:33:00,
2013-07-31 21:38:00,71.6,41.8,30.19,NNE,27,0.0,3.1,34,0.00,,BKN220,0.00,VWS V13.01,2013-08-01 03:38:00,
2013-07-31 21:43:00,71.2,42.9,30.22,ENE,75,0.0,4.9,36,0.00,,BKN220,0.00,VWS V13.01,2013-08-01 03:43:00,
2013-07-31 21:49:00,70.9,42.6,30.22,ENE,75,0.0,0.0,36,0.00,,BKN220,0.00,VWS V13.01,2013-08-01 03:49:00,
2013-07-31 21:54:00,70.7,43.2,30.22,ENE,75,0.0,0.0,37,0.00,,BKN220,0.00,VWS V13.01,2013-08-01 03:54:00,
2013-07-31 21:59:00,70.5,43.7,30.22,ENE,75,0.0,0.0,38,0.00,,BKN220,0.00,VWS V13.01,2013-08-01 03:59:00,
2013-07-31 22:01:00,70.5,43.7,30.22,ENE,75,0.0,0.0,38,0.00,,BKN220,0.00,VWS V13.01,2013-08-01 04:01:00,
2013-07-31 22:02:00,70.3,43.5,30.22,ENE,75,0.0,0.0,38,0.00,,BKN220,0.00,VWS V13.01,2013-08-01 04:02:00,
2013-07-31 22:07:00,70.2,44.1,30.22,ENE,75,0.0,0.0,39,0.00,,BKN220,0.00,VWS V13.01,2013-08-01 04:07:00,
2013-07-31 22:12:00,70.0,44.6,30.22,ENE,75,0.0,0.0,40,0.00,,BKN220,0.00,VWS V13.01,2013-08-01 04:12:00,
2013-07-31 22:17:00,69.8,44.4,30.22,ENE,75,0.0,0.0,40,0.00,,BKN220,0.00,VWS V13.01,2013-08-01 04:17:00,
2013-07-31 22:22:00,69.6,44.9,30.22,ENE,64,0.0,0.0,41,0.00,,BKN220,0.00,VWS V13.01,2013-08-01 04:22:00,
2013-07-31 22:27:00,69.4,45.4,30.22,ENE,64,0.0,0.0,42,0.00,,BKN220,0.00,VWS V13.01,2013-08-01 04:27:00,
2013-07-31 22:32:00,69.3,45.2,30.22,North,7,2.2,2.2,42,0.00,,BKN220,0.00,VWS V13.01,2013-08-01 04:32:00,
2013-07-31 22:37:00,69.3,45.2,30.22,North,7,0.0,2.2,42,0.00,,BKN220,0.00,VWS V13.01,2013-08-01 04:37:00,
2013-07-31 22:42:00,69.1,45.7,30.22,North,3,0.0,2.2,43,0.00,,BKN220,0.00,VWS V13.01,2013-08-01 04:42:00,
2013-07-31 22:47:00,69.1,45.7,30.22,North,3,0.0,0.0,43,0.00,,BKN220,0.00,VWS V13.01,2013-08-01 04:47:00,
2013-07-31 22:52:00,68.9,45.5,30.22,North,3,0.0,0.0,43,0.00,,BKN220,0.00,VWS V13.01,2013-08-01 04:52:00,
2013-07-31 22:57:00,68.9,45.5,30.22,North,3,0.0,0.0,43,0.00,,BKN220,0.00,VWS V13.01,2013-08-01 04:57:00,
2013-07-31 23:02:00,68.7,46.0,30.22,North,3,0.0,0.0,44,0.00,,BKN220,0.00,VWS V13.01,2013-08-01 05:02:00,
2013-07-31 23:08:00,68.5,45.8,30.22,North,3,0.0,0.0,44,0.00,,BKN220,0.00,VWS V13.01,2013-08-01 05:08:00,
2013-07-31 23:13:00,68.5,45.8,30.22,North,3,0.0,0.0,44,0.00,,BKN220,0.00,VWS V13.01,2013-08-01 05:13:00,
2013-07-31 23:18:00,68.4,46.2,30.22,North,3,0.0,0.0,45,0.00,,BKN220,0.00,VWS V13.01,2013-08-01 05:18:00,
2013-07-31 23:23:00,68.2,46.0,30.22,North,3,0.0,0.0,45,0.00,,BKN220,0.00,VWS V13.01,2013-08-01 05:23:00,
2013-07-31 23:28:00,68.2,46.0,30.22,North,3,0.0,0.0,45,0.00,,BKN220,0.00,VWS V13.01,2013-08-01 05:28:00,
2013-07-31 23:33:00,68.0,46.5,30.22,North,3,0.0,0.0,46,0.00,,BKN220,0.00,VWS V13.01,2013-08-01 05:33:00,
2013-07-31 23:38:00,68.0,46.5,30.22,North,3,0.0,0.0,46,0.00,,BKN220,0.00,VWS V13.01,2013-08-01 05:38:00,
2013-07-31 23:43:00,67.8,46.9,30.22,NE,40,0.0,0.0,47,0.00,,BKN220,0.00,VWS V13.01,2013-08-01 05:43:00,
2013-07-31 23:48:00,67.8,47.4,30.22,ENE,78,0.0,4.0,48,0.00,,BKN220,0.00,VWS V13.01,2013-08-01 05:48:00,
2013-07-31 23:53:00,67.8,47.4,30.22,ENE,78,0.0,4.0,48,0.00,,BKN220,0.00,VWS V13.01,2013-08-01 05:53:00,
2013-07-31 23:58:00,67.6,47.8,30.22,ENE,78,0.0,4.0,49,0.00,,BKN220,0.00,VWS V13.01,2013-08-01 05:58:00,